STARLINK-32559, 61915

Orbit data source: Space-Track

STARLINK-32559, 61915 is a payload satellite owned by SpaceX/Seattle (US) in LEO that was launched on Mon, 11 Nov 2024 UTC via an FALCON 9 launch vehicle from the Air Force Eastern Test Range (AFETR). Payload-class satellites include a variety of spacecraft equipped with specific instruments for various scientific and technological missions. These include communications satellites like Starlink; space stations such as the ISS; scientific satellites like the Hubble; Earth observation satellites from companies like Planet Labs, Umbra, and HawkEye 360; GPS; miniature CubeSats for education and research; and military/defense satellites.

Loading next visibility...
Identifier
61915, 2024-207D
Orbit
LEO
Last TLE update
7 hours ago
Origin
Manufacturer
SpaceX/Seattle
Mission
Operational Commercial Communications
Bus & Motor
STARLINK V2M, Unknown motor
Mass
730 kg wet, ~700 kg dry
Launch date (UTC)
2024-11-11 (8 months ago)
Launch vehicle
FALCON 9
Launch site
Air Force Eastern Test Range (AFETR)
Object type
Payload
Rocket body
Debris
Shape & HBR
Box + 2 Pan, 29 m
Radar Cross Section
36.964 m², Large (>1 m²)

Expand to show TLE details & history

TLE from 7 hours ago
0 STARLINK-32559
1 61915U 24207D   25186.52141121  .00018967  00000-0  69678-3 0  9996
2 61915  43.0020 237.3829 0001693 268.3543  91.7115 15.27589892 36927
Epoch: 2025-07-05T12:30Z
TLE epoch observation values (Epoch: 2025-07-05T12:30:49.928Z)
Latitude
-0°
Longitude
125.9166°
Altitude
482.83 km
Speed
7.626 km/s
True Right ascension
15h 49m 31s
True Declination
0° 00' 00"
Sunlit
Object was in full shadow at epoch
Visualization orbit readout
Latitude
24.91109°
Longitude
-85.39254°
Altitude
483.554 km
Speed
7.627 km/s
Apparent Right ascension
23h 02m 29s
Apparent Declination
-9° 03' 26"
Sunlit
Object is in daylight
Visualization observer readout
Local Sidereal Time
07:20:16
Azimuth
286.269° WNW
Elevation
-31.966°
Doppler factor
1
Orbital elements
Apogee altitude
486.126 km
Perigee altitude
483.802 km
Semi-major axis
6,863.101 km
Eccentricity
0.00017
Inclination
43.002°
RAAN
237.3829°
Arg. of periapsis
268.3543°
True anomaly
Unknown
Mean anomaly
91.7115°
Eccentric anomaly
Unknown
Mean motion
3.81736 °/min
Orbital period
94.31 mins
BSTAR
0.00069678
Loading maneuver chart data...
Loading SW <> Apogee altitude chart data...
Loading historical data...
Loading historical data...
Loading historical data...
Loading historical data...
Loading historical data...
Loading historical data...
Loading historical data...

STARLINK-32559 Visibility forecast

Observer location: undefined°, undefined°

Span
Click to sort rows by Start time (UTC) header in descending order
Start Az.
Max El. time (UTC)
Max El. Az.
Max El.
End time (UTC)
End Az.
5 mins2025-07-06 05:57:34.862Z187.585° SSW2025-07-06 05:59:34.862Z152.592° SSE18.379°2025-07-06 06:02:34.862Z98.01° ESE
5 mins2025-07-06 07:36:34.862Z244.981° WSW2025-07-06 07:38:34.862Z142.71° SSE44.696°2025-07-06 07:41:34.862Z73.18° E
5 mins2025-07-06 09:15:34.862Z289.427° WNW2025-07-06 09:17:34.862Z353.503° N38.178°2025-07-06 09:20:34.862Z71.966° E
5 mins2025-07-06 10:54:34.862Z292.144° WNW2025-07-06 10:56:34.862Z334.91° NNW43.451°2025-07-06 10:59:34.862Z99.993° ESE
5 mins2025-07-06 12:33:34.862Z260.624° W2025-07-06 12:35:34.862Z211.604° SW26.707°2025-07-06 12:38:34.862Z151.605° SSE
|